Tracking 19709 objects as of 20-Jun-2019
HD Live streaming from Space Station
objects crossing your sky now

FLOCK 1C 1

Track FLOCK 1C 1 now!
10-day predictions
FLOCK 1C 1 is classified as:


NORAD ID: 40027
Int'l Code: 2014-033T
Perigee: 596.0 km
Apogee: 615.6 km
Inclination: 97.9 °
Period: 96.7 minutes
Semi major axis: 6976 km
RCS: Unknown
Launch date: June 19, 2014
Source: United States (US)
Launch site: Orenburg, Russia (OREN)
aabbcc
Your satellite tracking list
Your tracking list is empty




NASA's NSSDC Master Catalog

Two Line Element Set (TLE):
1 40027U 14033T   19170.28843451 +.00000294 +00000-0 +36578-4 0  9995
2 40027 097.9261 093.4552 0014054 058.4093 301.8494 14.89779472270950
Source of the keplerian elements: AFSPC